Weather History for CWPS - November, 2013

Change the Weather History Date:

Sunday, November 17, 2013

  Actual Average Record
Temperature  
Mean Temperature 56 °F -  
Max Temperature 58 °F - - ()
Min Temperature 53 °F - - ()
Degree Days  
Heating Degree Days 10    
Growing Degree Days 6 (Base 50)    
Moisture  
Dew Point 50 °F    
Average Humidity 81    
Maximum Humidity 91    
Minimum Humidity 66    
Precipitation  
Precipitation 0.00 in - - ()
Sea Level Pressure  
Sea Level Pressure 29.67 in    
Wind  
Wind Speed 28 mph ()    
Max Wind Speed 44 mph    
Max Gust Speed 59 mph    
T = Trace of Precipitation, MM = Missing Value Source: Averaged Metar Reports

Daily Weather History Graph

Daily Weather History Graph

Search for Another Location

Airport or City:

Trip Planner

Search our weather history database for the weather conditions in past years. The results will help you decide how hot, cold, wet, or windy it might be!

Date:

Astronomy

Nov. 17, 2013 Rise Set
Actual Time 7:14 AM EST 4:55 PM EST
Civil Twilight 6:43 AM EST 5:26 PM EST
Nautical Twilight 6:09 AM EST 6:00 PM EST
Astronomical Twilight 5:36 AM EST 6:33 PM EST
Moon 5:11 PM EST (11/17) 7:06 AM EST (11/17)
Length of Visible Light 10h 42m
Length of Day
9h 41m
Full, 100% of the Moon is Illuminated
Nov 17
Full
Nov 25
Last Quarter
Dec 2
New
Dec 9
First Quarter
Dec 17
Full

Hourly Weather History & Observations

Time (EST) Temp. Dew Point Humidity Pressure Visibility Wind Dir Wind Speed Gust Speed Precip Events Conditions
12:00 AM 55.2 °F 46.8 °F 73% 29.90 in - SE 29.9 mph - N/A   Unknown
1:00 AM 55 °F 47 °F 66% 29.89 in - SE 28.8 mph - -  
1:00 AM 55.0 °F 46.9 °F 74% 29.89 in - SE 28.8 mph - N/A   Unknown
2:00 AM 55.6 °F 47.3 °F 74% 29.88 in - SE 29.9 mph - N/A   Unknown
3:00 AM 55.9 °F 47.8 °F 74% 29.86 in - SE 28.8 mph - N/A   Unknown
4:00 AM 55.4 °F 47.7 °F 75% 29.83 in - SE 31.1 mph - N/A   Unknown
5:00 AM 53.6 °F 49.5 °F 86% 29.83 in - SE 31.1 mph - N/A   Unknown
6:00 AM 54.1 °F 49.5 °F 84% 29.82 in - SSE 31.1 mph - N/A   Unknown
7:00 AM 54 °F 50 °F 82% 29.81 in - SE 31.1 mph - -  
7:00 AM 53.8 °F 50.2 °F 88% 29.81 in - SE 31.1 mph - N/A   Unknown
8:00 AM 54.3 °F 50.9 °F 88% 29.79 in - SE 33.4 mph - N/A   Unknown
9:00 AM 54.3 °F 50.4 °F 86% 29.76 in - SE 40.3 mph - N/A   Unknown
10:00 AM 55.0 °F 50.7 °F 85% 29.78 in - SE 28.8 mph - N/A   Unknown
11:00 AM 55.8 °F 51.3 °F 85% 29.75 in - SSE 28.8 mph - N/A   Unknown
12:00 PM 56.3 °F 51.6 °F 84% 29.73 in - SSE 28.8 mph - N/A   Unknown
1:00 PM 56 °F 51 °F 80% 29.69 in - SE 25.3 mph - -  
1:00 PM 55.9 °F 51.4 °F 85% 29.69 in - SE 25.3 mph - N/A   Unknown
2:00 PM 56.5 °F 51.6 °F 84% 29.65 in - SSE 23.0 mph - N/A   Unknown
3:00 PM 57.2 °F 52.0 °F 83% 29.60 in - SE 31.1 mph - N/A   Unknown
4:00 PM 57.7 °F 52.3 °F 82% 29.57 in - SE 28.8 mph - N/A   Unknown
5:00 PM 58.3 °F 53.1 °F 83% 29.52 in - SE 31.1 mph - N/A   Unknown
6:00 PM 57.9 °F 53.4 °F 85% 29.48 in - SE 34.5 mph - N/A   Unknown
7:00 PM 58 °F 53 °F 77% 29.42 in - SE 34.5 mph - -  
7:00 PM 58.1 °F 52.7 °F 82% 29.42 in - SE 34.5 mph - N/A   Unknown
8:00 PM 58.3 °F 52.5 °F 81% 29.40 in - South 29.9 mph - N/A   Unknown
9:00 PM 53.6 °F 51.1 °F 91% 29.40 in - South 42.6 mph 58.7 mph N/A   Unknown
10:00 PM 54.0 °F 48.0 °F 80% 29.31 in - SSE 40.3 mph 47.2 mph N/A   Unknown
11:00 PM 54.3 °F 44.6 °F 70% 29.35 in - SSW 43.7 mph 58.7 mph N/A   Unknown